There are multiple Weather-warnings   Click here for more information


Meteo18 Weather Cam more information Meteo18 Weather Cam


warning for Thunderstorms more information blitzortung!


Rain radar more information rain snow radar


Visit our other weather sites:

Template documentation
and downloads

And another site



Weather Underground History page Text

Daily Summary for March 1, 2017 Units:  English    Metric   Both
« Previous Day
Next Day »
Daily Weekly Monthly Yearly Custom
  High: Low: Average:
Temperature: 51.4 °F 42.4 °F 46.2 °F
Dew Point: 49.5 °F 38.5 °F 43.9 °F
Humidity: 96 % 84 % 92 %
Wind Speed: 30 mph 4 mph 11.3 mph
Wind Gust: 31 mph - -
Wind:- - SW
Pressure: 29.9 in 29.7 in -
Precipitation: 0.54 in    
Historical Graphs
 
 
Tabular Data for March 1, 2017
Time Temperature Dew Point Pressure Wind Wind Speed Wind Gust Humidity Rainfall Rate (Hourly)
00:02 42.4 °F 38.5 °F 29.7 in SW 13 mph 23 mph 86 % 0.01 in
00:12 43 °F 38.8 °F 29.7 in SSW 13 mph 23 mph 85 % 0.01 in
00:17 43 °F 38.5 °F 29.7 in West 23 mph 23 mph 84 % 0.01 in
00:22 43.2 °F 38.7 °F 29.7 in WSW 13 mph 22 mph 84 % 0.01 in
00:32 43.2 °F 38.7 °F 29.7 in West 16 mph 23 mph 84 % 0.01 in
00:37 43.3 °F 38.8 °F 29.7 in West 24 mph 28 mph 84 % 0.01 in
00:42 43.3 °F 38.8 °F 29.7 in WSW 12 mph 28 mph 84 % 0.01 in
00:52 43.3 °F 39.2 °F 29.7 in WSW 14 mph 28 mph 85 % 0 in
00:57 43.2 °F 39 °F 29.7 in SW 11 mph 28 mph 85 % 0 in
01:02 43.2 °F 39.2 °F 29.7 in WSW 13 mph 28 mph 86 % 0 in
01:12 43.2 °F 39.2 °F 29.8 in West 11 mph 26 mph 86 % 0 in
01:17 43.2 °F 39.2 °F 29.8 in WNW 11 mph 22 mph 86 % 0 in
01:22 43.2 °F 39.2 °F 29.8 in West 15 mph 22 mph 86 % 0 in
01:27 43.2 °F 39.2 °F 29.8 in SSW 4 mph 20 mph 86 % 0 in
01:32 43.2 °F 39.6 °F 29.8 in WSW 15 mph 20 mph 87 % 0 in
01:37 43 °F 39.4 °F 29.8 in SW 21 mph 21 mph 87 % 0 in
01:42 43.2 °F 39.2 °F 29.8 in SW 6 mph 19 mph 86 % 0 in
01:47 43.2 °F 39.6 °F 29.8 in WSW 12 mph 26 mph 87 % 0 in
01:52 43.2 °F 39.6 °F 29.8 in SW 11 mph 26 mph 87 % 0 in
01:57 43.2 °F 39.6 °F 29.8 in WSW 12 mph 26 mph 87 % 0 in
02:02 43.2 °F 39.6 °F 29.8 in West 5 mph 26 mph 87 % 0 in
02:07 43.2 °F 39.6 °F 29.8 in West 8 mph 17 mph 87 % 0 in
02:12 43.2 °F 39.6 °F 29.8 in West 7 mph 17 mph 87 % 0 in
02:17 43.2 °F 39.9 °F 29.8 in West 9 mph 17 mph 88 % 0 in
02:22 43.3 °F 40.1 °F 29.8 in West 8 mph 17 mph 88 % 0 in
02:27 43.3 °F 40.1 °F 29.8 in WSW 8 mph 21 mph 88 % 0 in
02:32 43.3 °F 40.1 °F 29.8 in WSW 11 mph 20 mph 88 % 0 in
02:37 43.2 °F 39.9 °F 29.8 in SW 12 mph 20 mph 88 % 0 in
02:42 43.3 °F 40.1 °F 29.8 in SW 13 mph 19 mph 88 % 0 in
02:47 43.2 °F 40.1 °F 29.8 in West 15 mph 20 mph 89 % 0 in
02:52 43.2 °F 40.1 °F 29.8 in SW 6 mph 22 mph 89 % 0 in
02:57 43 °F 40.3 °F 29.8 in West 14 mph 22 mph 90 % 0 in
03:02 43 °F 40.3 °F 29.8 in West 5 mph 22 mph 90 % 0 in
03:12 43 °F 40.3 °F 29.8 in WSW 7 mph 22 mph 90 % 0 in
03:17 43 °F 40.3 °F 29.8 in WSW 12 mph 22 mph 90 % 0 in
03:22 43.2 °F 40.1 °F 29.8 in West 9 mph 20 mph 89 % 0 in
03:32 43.2 °F 40.1 °F 29.8 in West 10 mph 21 mph 89 % 0 in
03:42 43.3 °F 40.3 °F 29.8 in West 8 mph 18 mph 89 % 0 in
03:52 43.3 °F 40.3 °F 29.8 in WSW 9 mph 16 mph 89 % 0 in
03:57 43.3 °F 40.3 °F 29.8 in SSW 6 mph 19 mph 89 % 0 in
04:02 43.3 °F 40.3 °F 29.8 in West 14 mph 19 mph 89 % 0 in
04:12 43.5 °F 40.5 °F 29.8 in SW 12 mph 22 mph 89 % 0 in
04:17 43.5 °F 40.5 °F 29.8 in WSW 10 mph 22 mph 89 % 0 in
04:22 43.7 °F 40.6 °F 29.8 in West 8 mph 21 mph 89 % 0 in
04:32 43.7 °F 40.5 °F 29.8 in WSW 12 mph 21 mph 88 % 0 in
04:37 43.5 °F 40.5 °F 29.8 in WNW 8 mph 21 mph 89 % 0 in
04:42 43.5 °F 40.5 °F 29.8 in SW 10 mph 20 mph 89 % 0 in
04:47 43.5 °F 40.5 °F 29.8 in SW 15 mph 22 mph 89 % 0 in
04:52 43.3 °F 40.6 °F 29.8 in WSW 18 mph 22 mph 90 % 0 in
04:57 43.3 °F 40.6 °F 29.8 in SW 11 mph 21 mph 90 % 0 in
05:02 43.2 °F 40.6 °F 29.8 in West 5 mph 21 mph 91 % 0 in
05:12 43.2 °F 40.6 °F 29.8 in WSW 13 mph 21 mph 91 % 0 in
05:17 43.2 °F 40.6 °F 29.8 in SW 13 mph 17 mph 91 % 0 in
05:22 43.2 °F 40.6 °F 29.8 in WSW 12 mph 19 mph 91 % 0 in
05:32 43.2 °F 41 °F 29.8 in WSW 13 mph 24 mph 92 % 0 in
05:37 43.2 °F 41 °F 29.8 in WSW 18 mph 18 mph 92 % 0 in
05:42 43.2 °F 41 °F 29.8 in SW 4 mph 17 mph 92 % 0 in
05:47 43.2 °F 41 °F 29.8 in WSW 15 mph 18 mph 92 % 0 in
05:52 43.2 °F 41 °F 29.8 in WSW 8 mph 18 mph 92 % 0 in
05:57 43.3 °F 41.2 °F 29.8 in SW 6 mph 18 mph 92 % 0 in
06:02 43.3 °F 40.8 °F 29.8 in WSW 10 mph 18 mph 91 % 0 in
06:12 43.3 °F 41.2 °F 29.8 in West 10 mph 18 mph 92 % 0 in
06:17 43.3 °F 41.2 °F 29.8 in WSW 8 mph 19 mph 92 % 0 in
06:22 43.3 °F 41.2 °F 29.8 in SW 9 mph 19 mph 92 % 0 in
06:27 43.3 °F 41.2 °F 29.8 in SW 4 mph 19 mph 92 % 0 in
06:32 43.3 °F 41.2 °F 29.8 in West 6 mph 19 mph 92 % 0 in
06:37 43.3 °F 41.2 °F 29.8 in SW 7 mph 19 mph 92 % 0 in
06:42 43.3 °F 41.2 °F 29.8 in WSW 10 mph 16 mph 92 % 0 in
06:47 43.3 °F 41.2 °F 29.8 in SSW 11 mph 16 mph 92 % 0 in
06:52 43.3 °F 41.2 °F 29.8 in SW 10 mph 16 mph 92 % 0 in
06:57 43.3 °F 41.5 °F 29.8 in WSW 12 mph 17 mph 93 % 0 in
07:02 43.2 °F 41.4 °F 29.8 in SSW 4 mph 17 mph 93 % 0 in
07:07 43.2 °F 41.4 °F 29.8 in WSW 7 mph 17 mph 93 % 0.01 in
07:12 43.2 °F 41.4 °F 29.8 in WSW 8 mph 17 mph 93 % 0.01 in
07:17 43.2 °F 41.5 °F 29.8 in WSW 6 mph 14 mph 94 % 0.01 in
07:27 43.2 °F 41.5 °F 29.8 in WSW 7 mph 14 mph 94 % 0.02 in
07:32 43.2 °F 41.5 °F 29.8 in SW 4 mph 14 mph 94 % 0.02 in
07:37 43.2 °F 41.5 °F 29.8 in WSW 8 mph 14 mph 94 % 0.03 in
07:42 43.2 °F 41.9 °F 29.8 in SW 8 mph 14 mph 95 % 0.03 in
07:47 43.2 °F 41.5 °F 29.8 in SW 10 mph 15 mph 94 % 0.03 in
07:57 43.3 °F 41.7 °F 29.8 in SSW 6 mph 13 mph 94 % 0.03 in
08:02 43.3 °F 41.7 °F 29.8 in SW 4 mph 13 mph 94 % 0.03 in
08:07 43.3 °F 41.7 °F 29.8 in SW 5 mph 13 mph 94 % 0.02 in
08:12 43.3 °F 41.7 °F 29.8 in SW 7 mph 13 mph 94 % 0.02 in
08:17 43.5 °F 41.7 °F 29.9 in West 5 mph 15 mph 93 % 0.02 in
08:22 43.5 °F 41.7 °F 29.9 in WSW 10 mph 15 mph 93 % 0.02 in
08:32 43.7 °F 41.7 °F 29.9 in SW 4 mph 15 mph 93 % 0.02 in
08:37 43.9 °F 41.9 °F 29.9 in SW 9 mph 16 mph 93 % 0.01 in
08:42 43.9 °F 41.7 °F 29.9 in WSW 9 mph 16 mph 92 % 0.01 in
08:47 44.1 °F 41.9 °F 29.9 in WSW 9 mph 15 mph 92 % 0.01 in
08:57 44.2 °F 42.1 °F 29.9 in WSW 12 mph 16 mph 92 % 0.01 in
09:02 44.2 °F 41.7 °F 29.9 in SW 8 mph 16 mph 91 % 0.01 in
09:07 44.4 °F 41.9 °F 29.9 in SSW 7 mph 19 mph 91 % 0.01 in
09:12 44.4 °F 41.9 °F 29.9 in SW 7 mph 19 mph 91 % 0.01 in
09:17 44.6 °F 42.1 °F 29.9 in WSW 10 mph 19 mph 91 % 0.01 in
09:27 44.8 °F 42.3 °F 29.9 in SW 14 mph 15 mph 91 % 0 in
09:32 44.8 °F 42.3 °F 29.9 in SW 11 mph 15 mph 91 % 0 in
09:37 44.8 °F 42.3 °F 29.9 in SSW 9 mph 17 mph 91 % 0 in
09:42 44.8 °F 42.3 °F 29.9 in WSW 4 mph 17 mph 91 % 0 in
09:47 44.6 °F 42.1 °F 29.9 in SW 5 mph 14 mph 91 % 0.01 in
09:52 44.6 °F 42.4 °F 29.9 in West 4 mph 14 mph 92 % 0.01 in
09:57 44.6 °F 42.4 °F 29.9 in SW 7 mph 14 mph 92 % 0.02 in
10:02 44.8 °F 42.6 °F 29.9 in SW 11 mph 14 mph 92 % 0.02 in
10:07 44.8 °F 42.6 °F 29.9 in SW 7 mph 16 mph 92 % 0.02 in
10:12 44.8 °F 42.6 °F 29.9 in SW 6 mph 16 mph 92 % 0.03 in
10:17 45 °F 42.8 °F 29.9 in WSW 9 mph 16 mph 92 % 0.03 in
10:22 45 °F 42.8 °F 29.9 in WSW 9 mph 16 mph 92 % 0.03 in
10:32 45 °F 42.8 °F 29.9 in WSW 11 mph 20 mph 92 % 0.04 in
10:37 45.1 °F 43 °F 29.9 in West 11 mph 20 mph 92 % 0.04 in
10:42 45.1 °F 43 °F 29.9 in WSW 13 mph 20 mph 92 % 0.03 in
10:47 45.1 °F 41.7 °F 29.9 in SW 18 mph 22 mph 88 % 0.03 in
10:52 45.1 °F 41.5 °F 29.9 in SSW 10 mph 23 mph 87 % 0.02 in
10:57 45.1 °F 41.7 °F 29.9 in WSW 11 mph 23 mph 88 % 0.03 in
11:02 45.1 °F 41.7 °F 29.9 in WSW 17 mph 23 mph 88 % 0.02 in
11:07 45.1 °F 41.5 °F 29.9 in WSW 13 mph 21 mph 87 % 0.02 in
11:12 45.1 °F 41.5 °F 29.9 in SW 8 mph 20 mph 87 % 0.02 in
11:17 45.1 °F 41.5 °F 29.9 in SW 8 mph 20 mph 87 % 0.02 in
11:22 45.3 °F 41.9 °F 29.9 in SW 15 mph 17 mph 88 % 0.02 in
11:27 45.5 °F 42.1 °F 29.9 in WSW 11 mph 17 mph 88 % 0.02 in
11:32 45.7 °F 42.3 °F 29.9 in South 13 mph 21 mph 88 % 0.02 in
11:37 45.9 °F 42.8 °F 29.9 in SW 10 mph 22 mph 89 % 0.02 in
11:42 46 °F 43 °F 29.9 in SW 12 mph 22 mph 89 % 0.02 in
11:47 46 °F 42.4 °F 29.8 in SW 11 mph 24 mph 87 % 0.02 in
11:52 46 °F 42.4 °F 29.8 in SW 12 mph 24 mph 87 % 0.01 in
11:57 46 °F 42.6 °F 29.8 in SW 14 mph 24 mph 88 % 0.01 in
12:02 45.9 °F 42.8 °F 29.9 in SW 11 mph 24 mph 89 % 0.01 in
12:07 45.9 °F 42.4 °F 29.8 in SW 18 mph 24 mph 88 % 0.01 in
12:12 45.7 °F 42.6 °F 29.8 in SSW 18 mph 24 mph 89 % 0.01 in
12:17 45.5 °F 42.8 °F 29.8 in SW 13 mph 24 mph 90 % 0.01 in
12:22 45.3 °F 42.6 °F 29.8 in SW 16 mph 23 mph 90 % 0.01 in
12:27 45.3 °F 42.6 °F 29.8 in SSW 17 mph 21 mph 90 % 0 in
12:32 45.1 °F 42.6 °F 29.8 in SW 20 mph 21 mph 91 % 0 in
12:37 44.8 °F 42.6 °F 29.8 in SSW 16 mph 24 mph 92 % 0 in
12:42 44.6 °F 42.6 °F 29.8 in SSW 14 mph 25 mph 93 % 0 in
12:47 44.4 °F 42.8 °F 29.8 in SW 7 mph 25 mph 94 % 0 in
12:52 44.4 °F 42.8 °F 29.8 in SSW 12 mph 25 mph 94 % 0 in
12:57 44.4 °F 42.8 °F 29.8 in SW 13 mph 20 mph 94 % 0.01 in
13:02 44.2 °F 42.6 °F 29.8 in South 8 mph 20 mph 94 % 0.02 in
13:12 44.4 °F 43.2 °F 29.8 in SSW 12 mph 15 mph 95 % 0.02 in
13:17 44.4 °F 43.2 °F 29.8 in South 7 mph 15 mph 95 % 0.02 in
13:22 44.4 °F 42.8 °F 29.8 in SSW 6 mph 15 mph 94 % 0.03 in
13:32 44.6 °F 43 °F 29.8 in SW 13 mph 15 mph 94 % 0.05 in
13:37 44.6 °F 43 °F 29.8 in SSW 10 mph 15 mph 94 % 0.05 in
13:42 44.8 °F 43.2 °F 29.8 in SW 8 mph 13 mph 94 % 0.06 in
13:47 44.8 °F 43.2 °F 29.8 in SSW 7 mph 16 mph 94 % 0.06 in
13:52 44.8 °F 43.5 °F 29.8 in SSW 6 mph 16 mph 95 % 0.06 in
13:57 44.8 °F 43.5 °F 29.8 in South 8 mph 16 mph 95 % 0.07 in
14:02 45 °F 43.7 °F 29.8 in SSW 6 mph 13 mph 95 % 0.08 in
14:07 45 °F 43.7 °F 29.8 in SSW 6 mph 13 mph 95 % 0.09 in
14:12 45.1 °F 44.1 °F 29.8 in SSW 6 mph 13 mph 96 % 0.09 in
14:17 45.1 °F 44.1 °F 29.8 in SSW 10 mph 13 mph 96 % 0.09 in
14:22 45.5 °F 44.4 °F 29.8 in South 12 mph 15 mph 96 % 0.09 in
14:27 45.9 °F 44.8 °F 29.8 in SSW 7 mph 15 mph 96 % 0.09 in
14:32 46 °F 45 °F 29.8 in SSW 13 mph 17 mph 96 % 0.09 in
14:37 46.2 °F 45.1 °F 29.8 in SSW 13 mph 17 mph 96 % 0.09 in
14:42 46.6 °F 45.5 °F 29.8 in SW 12 mph 17 mph 96 % 0.1 in
14:47 46.6 °F 45.5 °F 29.8 in SSW 12 mph 18 mph 96 % 0.09 in
14:52 46.8 °F 45.7 °F 29.8 in SW 11 mph 18 mph 96 % 0.09 in
14:57 46.8 °F 45.7 °F 29.8 in SW 12 mph 18 mph 96 % 0.09 in
15:02 46.8 °F 45.7 °F 29.8 in SSW 12 mph 18 mph 96 % 0.09 in
15:07 46.9 °F 45.9 °F 29.8 in WSW 8 mph 17 mph 96 % 0.09 in
15:12 47.1 °F 46 °F 29.8 in SW 9 mph 18 mph 96 % 0.08 in
15:17 47.3 °F 46.2 °F 29.8 in SW 16 mph 18 mph 96 % 0.07 in
15:22 47.7 °F 46.6 °F 29.8 in SW 8 mph 18 mph 96 % 0.07 in
15:32 47.8 °F 46.4 °F 29.8 in SW 11 mph 21 mph 95 % 0.07 in
15:37 48 °F 46.6 °F 29.8 in SSW 11 mph 21 mph 95 % 0.07 in
15:42 48 °F 46.6 °F 29.8 in SSW 15 mph 19 mph 95 % 0.07 in
15:52 48.4 °F 46.9 °F 29.8 in SW 13 mph 19 mph 95 % 0.06 in
15:57 48.6 °F 47.1 °F 29.8 in SW 12 mph 23 mph 95 % 0.07 in
16:02 48.7 °F 47.3 °F 29.8 in WSW 9 mph 23 mph 95 % 0.06 in
16:12 49.3 °F 47.8 °F 29.8 in SW 13 mph 19 mph 95 % 0.06 in
16:17 49.3 °F 47.8 °F 29.8 in SW 5 mph 19 mph 95 % 0.05 in
16:22 49.5 °F 48 °F 29.8 in SW 15 mph 19 mph 95 % 0.06 in
16:32 49.8 °F 48.4 °F 29.8 in SW 8 mph 20 mph 95 % 0.05 in
16:37 50 °F 48.4 °F 29.8 in SSW 8 mph 25 mph 94 % 0.06 in
16:42 50.2 °F 48.6 °F 29.8 in SW 14 mph 25 mph 94 % 0.06 in
16:52 50.4 °F 48.7 °F 29.8 in WSW 11 mph 22 mph 94 % 0.05 in
16:57 50.4 °F 48.7 °F 29.8 in SW 7 mph 22 mph 94 % 0.05 in
17:02 50.5 °F 48.9 °F 29.8 in West 12 mph 20 mph 94 % 0.05 in
17:12 50.5 °F 48.9 °F 29.8 in SW 14 mph 20 mph 94 % 0.05 in
17:17 50.7 °F 49.1 °F 29.8 in SW 16 mph 18 mph 94 % 0.04 in
17:22 50.7 °F 49.1 °F 29.8 in WSW 8 mph 23 mph 94 % 0.03 in
17:27 50.7 °F 49.1 °F 29.8 in SW 13 mph 23 mph 94 % 0.03 in
17:32 50.9 °F 49.3 °F 29.8 in WSW 8 mph 23 mph 94 % 0.03 in
17:37 51.1 °F 49.5 °F 29.8 in SSW 13 mph 22 mph 94 % 0.03 in
17:42 51.3 °F 49.3 °F 29.8 in SW 11 mph 21 mph 93 % 0.02 in
17:52 51.3 °F 49.3 °F 29.8 in SW 12 mph 24 mph 93 % 0.02 in
17:57 51.4 °F 49.3 °F 29.8 in WSW 8 mph 24 mph 92 % 0.02 in
18:02 51.4 °F 49.3 °F 29.8 in WSW 7 mph 20 mph 92 % 0.02 in
18:12 51.3 °F 49.1 °F 29.8 in WSW 21 mph 24 mph 92 % 0.01 in
18:17 51.3 °F 49.1 °F 29.8 in SW 9 mph 24 mph 92 % 0.01 in
18:22 51.3 °F 49.1 °F 29.8 in WSW 13 mph 24 mph 92 % 0.01 in
18:32 51.3 °F 49.1 °F 29.8 in SW 14 mph 23 mph 92 % 0 in
18:37 51.1 °F 48.9 °F 29.8 in WSW 11 mph 23 mph 92 % 0 in
18:42 51.1 °F 48.9 °F 29.8 in SW 7 mph 26 mph 92 % 0.01 in
18:47 50.9 °F 48.7 °F 29.8 in SW 15 mph 26 mph 92 % 0.01 in
18:52 51.1 °F 48.9 °F 29.8 in SW 11 mph 30 mph 92 % 0.01 in
18:57 50.9 °F 48.7 °F 29.8 in SW 12 mph 30 mph 92 % 0.01 in
19:02 51.1 °F 48.9 °F 29.8 in WSW 19 mph 30 mph 92 % 0.01 in
19:12 51.1 °F 48.9 °F 29.8 in WSW 8 mph 26 mph 92 % 0.01 in
19:17 50.9 °F 48.7 °F 29.8 in SW 12 mph 26 mph 92 % 0.01 in
19:22 50.9 °F 48.7 °F 29.8 in SSW 7 mph 26 mph 92 % 0.01 in
19:27 50.7 °F 48.6 °F 29.8 in SW 23 mph 25 mph 92 % 0.01 in
19:37 50.5 °F 48.6 °F 29.8 in WSW 17 mph 27 mph 93 % 0.01 in
19:42 50.5 °F 48.6 °F 29.8 in SW 17 mph 27 mph 93 % 0.01 in
19:47 50.4 °F 48.4 °F 29.8 in WSW 14 mph 27 mph 93 % 0.01 in
19:52 50.4 °F 48.7 °F 29.8 in SW 14 mph 27 mph 94 % 0.01 in
19:57 50.4 °F 48.7 °F 29.8 in WSW 14 mph 27 mph 94 % 0.01 in
20:02 50.4 °F 48.4 °F 29.8 in WSW 30 mph 30 mph 93 % 0.01 in
20:07 50.4 °F 48.4 °F 29.8 in SW 14 mph 30 mph 93 % 0.02 in
20:12 50.4 °F 48.4 °F 29.8 in SW 12 mph 30 mph 93 % 0.02 in
20:17 50.4 °F 48.4 °F 29.8 in WSW 17 mph 30 mph 93 % 0.02 in
20:22 50.5 °F 48.4 °F 29.8 in WSW 22 mph 25 mph 92 % 0.02 in
20:32 50.5 °F 48.4 °F 29.8 in WSW 23 mph 26 mph 92 % 0.02 in
20:37 50.5 °F 48.4 °F 29.8 in WSW 15 mph 28 mph 92 % 0.03 in
20:42 50.5 °F 48.4 °F 29.8 in WSW 22 mph 28 mph 92 % 0.02 in
20:52 50.4 °F 48.2 °F 29.8 in SW 14 mph 26 mph 92 % 0.03 in
20:57 50.4 °F 48.2 °F 29.8 in WSW 9 mph 26 mph 92 % 0.03 in
21:02 50.2 °F 48 °F 29.8 in WSW 20 mph 24 mph 92 % 0.02 in
21:07 50.2 °F 48 °F 29.8 in WSW 16 mph 31 mph 92 % 0.04 in
21:12 50.2 °F 48 °F 29.8 in SW 19 mph 31 mph 92 % 0.04 in
21:17 50.2 °F 48 °F 29.8 in WSW 17 mph 31 mph 92 % 0.05 in
21:22 50.2 °F 48 °F 29.8 in SW 20 mph 26 mph 92 % 0.05 in
21:32 49.8 °F 47.8 °F 29.8 in SSW 5 mph 29 mph 93 % 0.04 in
21:37 49.8 °F 47.8 °F 29.8 in SW 10 mph 25 mph 93 % 0.05 in
21:42 49.8 °F 47.8 °F 29.8 in SW 15 mph 26 mph 93 % 0.05 in
21:47 49.8 °F 47.8 °F 29.8 in SSW 11 mph 26 mph 93 % 0.04 in
21:52 49.6 °F 48 °F 29.8 in WSW 9 mph 26 mph 94 % 0.04 in
21:57 49.6 °F 48 °F 29.8 in WSW 13 mph 21 mph 94 % 0.04 in
22:02 49.6 °F 48 °F 29.8 in WSW 13 mph 21 mph 94 % 0.03 in
22:07 49.6 °F 48 °F 29.8 in WSW 19 mph 21 mph 94 % 0.02 in
22:12 49.6 °F 48.2 °F 29.8 in WNW 13 mph 24 mph 95 % 0.02 in
22:17 49.6 °F 48 °F 29.8 in WSW 9 mph 25 mph 94 % 0.02 in
22:22 49.6 °F 48 °F 29.8 in WSW 12 mph 26 mph 94 % 0.02 in
22:32 49.8 °F 48.2 °F 29.8 in WSW 22 mph 26 mph 94 % 0.02 in
22:37 50 °F 48.4 °F 29.8 in West 12 mph 26 mph 94 % 0.02 in
22:42 50 °F 48.4 °F 29.8 in WSW 9 mph 26 mph 94 % 0.02 in
22:47 50 °F 48.4 °F 29.9 in SW 8 mph 26 mph 94 % 0.02 in
22:52 50.2 °F 48.2 °F 29.9 in West 10 mph 24 mph 93 % 0.02 in
23:02 50 °F 48.4 °F 29.9 in WSW 19 mph 22 mph 94 % 0.02 in
23:07 50.2 °F 48.2 °F 29.9 in WSW 17 mph 27 mph 93 % 0.02 in
23:12 50 °F 48.4 °F 29.9 in SW 8 mph 27 mph 94 % 0.02 in
23:17 50 °F 48.4 °F 29.9 in South 6 mph 27 mph 94 % 0.02 in
23:22 50 °F 48.4 °F 29.9 in WSW 14 mph 25 mph 94 % 0.02 in
23:32 50 °F 48.4 °F 29.9 in SW 16 mph 24 mph 94 % 0.02 in
23:37 49.8 °F 48.2 °F 29.9 in SW 8 mph 24 mph 94 % 0.03 in
23:42 49.8 °F 48.2 °F 29.9 in SW 13 mph 24 mph 94 % 0.03 in
23:47 49.8 °F 48.2 °F 29.9 in WSW 13 mph 21 mph 94 % 0.03 in
23:52 49.8 °F 48.2 °F 29.9 in WSW 19 mph 20 mph 94 % 0.03 in
Meteo18
Compliments of Weather Underground - 4 mb

Script developed by  Jim McMurry - jmcmurry@mwt.net Adapted for the template by  Wim van der Kuil - Leuven-Template.eu

You find our weather info also at:

European Weather Network

Weather Underground

Equipment we use:

Weather-station
Davis Vue

Weather-program
Meteohub

Weather-server
Raspberry PI 2 B+

Provider
1 and 1

Davis Vue

Meteohub

Raspberry PI 2 B+

1 and 1